CZ-6A DEB, 61809

Orbit data source: Space-Track

CZ-6A DEB, 61809 is space debris in LEO originally from a launch on Tue, 06 Aug 2024 UTC launched from the Taiyaun Space Center, China (TSC). Debris objects in space refer to the collection of defunct objects orbiting the Earth. Examples of debris include non-operational satellites, rocket bodies, and fragments generated from explosions, collisions, or faulty payload assembly.

Loading next visibility...
Identifier
61809, 2024-140ABZ
Orbit
LEO
Country
Flag of CNCN / PRC
Related business
Manufacturer
SAST
Mission
Spacecraft
Bus & Motor
Unknown
Mass
Unknown
Launch date (UTC)
2024-08-06 (2 years ago)
Launch vehicle
Unknown
Launch site
Taiyaun Space Center, China (TSC)
Object type
Payload
Rocket body
Debris
Shape & HBR
Unknown shape, 0.1 m
Radar Cross Section
Medium (>0.1 m² and <1 m²)

Expand to show TLE details & history
Last TLE update: 1 day ago

TLE from 1 day ago
0 CZ-6A DEB
1 61809U 24140ABZ 26170.52854479  .00001646  00000-0  22330-3 0  9995
2 61809  89.0026 268.2673 0166541 198.2914 161.2272 14.69141987 95917
Epoch: 2026-06-19T12:41Z
TLE epoch observation values (Epoch: 2026-06-19T12:41:06.269Z)
Latitude
-0.00001°
Longitude
170.23496°
Altitude
778.193 km
Speed
7.406 km/s
True Right ascension
17h 53m 04s
True Declination
0° 00' 00"
Sunlit
Object was in full shadow at epoch
Visualization orbit readout
Latitude
Unknown
Longitude
Unknown
Altitude
Unknown
Speed
Unknown
Apparent Right ascension
Unknown
Apparent Declination
Unknown
Sunlit
N/A
Visualization observer readout
Local Sidereal Time
07:18:42
Azimuth
Unknown
Elevation
Unknown
Doppler factor
Unknown
Orbital elements
Apogee altitude
777.914 km
Perigee altitude
543.463 km
Semi-major axis
7,038.825 km
Eccentricity
0.01665
Inclination
89.0026°
RAAN
268.2673°
Arg. of periapsis
198.2914°
True anomaly
161.82947°
Mean anomaly
161.2272°
Eccentric anomaly
161.52951°
Mean motion
3.6753 °/min
Orbital period
97.95 mins
BSTAR
0.0002233
Loading maneuver chart data...
Computing Atmospheric mass density...
Loading historical data...
Loading historical data...
Loading historical data...
Loading historical data...
Loading historical data...
Loading historical data...
Loading historical data...

Documentation

Showing up to 5 results
|